This is the latest recevied weather packets stored in our database for station/object KC0AFB. If no packets are shown the sender has not sent any weather packets the latest 10 day(s).
| Time | Temp. | Humidity | Pressure | Rain* | Wind** | Luminosity | Snow |
|---|---|---|---|---|---|---|---|
| 1777493988 | 10.56° C | 46% | 1018.8 hPa | 0 mm | - | 170 W/m² | - |
| 1777493687 | 10.56° C | 43% | 1018.8 hPa | 0 mm | - | 198 W/m² | - |
| 1777493384 | 11.11° C | 45% | 1019 hPa | 0 mm | - | 231 W/m² | - |
| 1777493080 | 11.67° C | 42% | 1018.9 hPa | 0 mm | - | 782 W/m² | - |
| 1777492777 | 11.67° C | 44% | 1018.9 hPa | 0 mm | - | 428 W/m² | - |
| 1777492473 | 11.11° C | 47% | 1018.8 hPa | 0 mm | - | 683 W/m² | - |
| 1777492170 | 10.56° C | 48% | 1018.9 hPa | 0 mm | - | 503 W/m² | - |
| 1777491866 | 10.56° C | 47% | 1018.8 hPa | 0 mm | - | 494 W/m² | - |
| 1777491563 | 10.56° C | 46% | 1018.8 hPa | 0 mm | - | 291 W/m² | - |
| 1777491261 | 10° C | 46% | 1018.7 hPa | 0 mm | - | 717 W/m² | - |
| 1777490957 | 10° C | 46% | 1018.7 hPa | 0 mm | - | 269 W/m² | - |
| 1777490652 | 10.56° C | 46% | 1018.9 hPa | 0 mm | - | 280 W/m² | - |
| 1777490349 | 10.56° C | 48% | 1018.6 hPa | 0 mm | - | 317 W/m² | - |
| 1777490047 | 10.56° C | 46% | 1018.9 hPa | 0 mm | - | 378 W/m² | - |
| 1777489744 | 11.11° C | 46% | 1019 hPa | 0 mm | - | 604 W/m² | - |
| 1777489441 | 11.11° C | 47% | 1018.8 hPa | 0 mm | - | 602 W/m² | - |
| 1777489137 | 11.67° C | 47% | 1018.8 hPa | 0 mm | - | 487 W/m² | - |
| 1777488835 | 11.67° C | 45% | 1018.7 hPa | 0 mm | - | 519 W/m² | - |
| 1777488532 | 11.67° C | 47% | 1018.7 hPa | 0 mm | - | 747 W/m² | - |
| 1777488229 | 11.11° C | 48% | 1018.9 hPa | 0 mm | - | 866 W/m² | - |
| 1777487927 | 10.56° C | 48% | 1018.7 hPa | 0 mm | - | 427 W/m² | - |
| 1777487625 | 11.11° C | 48% | 1018.7 hPa | 0 mm | - | 363 W/m² | - |
| 1777487322 | 11.67° C | 47% | 1018.6 hPa | 0 mm | - | 720 W/m² | - |
| 1777487020 | 10.56° C | 49% | 1018.8 hPa | 0 mm | - | 539 W/m² | - |
| 1777486715 | 10.56° C | 48% | 1019 hPa | 0 mm | - | 360 W/m² | - |
* Rain latest hour (hover to see other rain measurements)
** Current wind speed in m/s (hover to see current wind gust speed)